TITAN 3C TRANSTAGE DEB, 34170

Orbit data source: Space-Track

TITAN 3C TRANSTAGE DEB, 34170 is space debris in HEO originally from a launch on Tue, 21 Dec 1965 UTC launched from the Air Force Eastern Test Range (AFETR). Debris objects in space refer to the collection of defunct objects orbiting the Earth. Examples of debris include non-operational satellites, rocket bodies, and fragments generated from explosions, collisions, or faulty payload assembly.

Loading next visibility...
Identifier
34170, 1965-108DD
Orbit
HEO
Country
Flag of USUS
Related business
Manufacturer
Unknown
Mission
Spacecraft
Bus & Motor
Unknown
Mass
Unknown
Launch date (UTC)
1965-12-21 (60 years ago)
Launch vehicle
Unknown
Launch site
Air Force Eastern Test Range (AFETR)
Object type
Payload
Rocket body
Debris
Shape & HBR
Unknown shape, 0.1 m
Radar Cross Section
Medium (>0.1 m² and <1 m²)

Expand to show TLE details & history
Last TLE update: 3 days ago

TLE from 3 days ago
0 TITAN 3C TRANSTAGE DEB
1 34170U 65108DD  26168.96677176  .00000442  00000-0  24305-2 0  9993
2 34170  25.5378  81.6207 5789149 219.1294  79.9701  4.07742678 80200
Epoch: 2026-06-17T23:12Z
TLE epoch observation values (Epoch: 2026-06-17T23:12:09.080Z)
Latitude
0.00009°
Longitude
-172.62746°
Altitude
13,610.108 km
Speed
3.975 km/s
True Right ascension
05h 26m 30s
True Declination
0° 00' 00"
Sunlit
Object was in daylight at epoch
Visualization orbit readout
Latitude
Unknown
Longitude
Unknown
Altitude
Unknown
Speed
Unknown
Apparent Right ascension
Unknown
Apparent Declination
Unknown
Sunlit
N/A
Visualization observer readout
Local Sidereal Time
19:34:52
Azimuth
Unknown
Elevation
Unknown
Doppler factor
Unknown
Orbital elements
Apogee altitude
19,759.297 km
Perigee altitude
592.526 km
Semi-major axis
16,554.049 km
Eccentricity
0.57891
Inclination
25.5378°
RAAN
81.6207°
Arg. of periapsis
219.1294°
True anomaly
140.88204°
Mean anomaly
79.9701°
Eccentric anomaly
110.9473°
Mean motion
1.01903 °/min
Orbital period
353.28 mins
BSTAR
0.0024305
Loading maneuver chart data...
Computing Atmospheric mass density...

Documentation

Showing up to 5 results
|